Wind_Speed
113 112 109 104 100 98 96 96 94 92 92 93 93 91 87 84 82 81 83 83 82 78 74 71 67 66 68 65 62 60 54 50 52 54 53 53 54 55 56 57 59 59 58 55 52 52 51 50 48 46 44 42 41 39 37 38 39 39 39 39 39 40 42 42 41 41 40 37 35 36 37 38 39 39 39 40 41 42 43 43 44 44 44 44 45 46
116 114 109 105 103 102 101 100 99 97 96 97 96 95 92 88 85 85 85 85 84 81 77 76 72 68 69 68 65 62 56 53 55 56 54 53 52 53 54 57 59 60 59 57 55 55 54 52 51 50 49 48 47 46 44 45 44 43 42 40 39 39 41 41 41 41 38 36 37 39 40 41 42 43 43 44 44 44 44 43 43 43 43 44 46 47
118 114 110 108 107 106 104 103 103 102 100 100 99 98 95 91 89 87 87 87 87 84 80 79 75 71 72 71 67 63 59 58 58 57 55 54 51 51 53 56 57 59 59 59 58 57 57 55 53 52 52 52 51 50 49 49 47 45 43 41 40 40 40 41 42 40 38 37 40 42 44 45 46 46 45 45 45 45 44 43 43 44 45 47 47 48
120 115 113 113 111 108 107 107 106 105 103 102 101 99 97 94 92 90 89 91 90 87 83 82 79 75 74 73 68 65 63 63 61 58 56 54 52 52 53 55 56 58 60 60 59 59 59 58 57 56 55 54 52 51 51 51 49 47 45 42 40 41 41 41 42 43 41 41 42 43 44 45 46 47 47 47 47 46 45 45 46 47 49 49 50 50
122 119 118 117 114 112 112 112 110 108 106 104 102 100 98 97 96 94 94 95 94 90 87 86 83 77 75 75 72 70 67 65 63 60 57 56 54 53 53 53 55 57 59 59 58 59 59 59 59 59 58 56 55 54 54 52 50 48 46 44 43 43 44 43 43 44 44 44 44 44 44 45 46 47 48 49 48 47 48 49 50 51 51 52 52 52
127 125 123 120 117 116 117 115 113 111 108 106 104 102 101 101 100 98 98 98 96 93 90 89 86 79 76 76 75 74 69 66 65 62 59 58 57 55 54 54 55 56 57 58 57 57 58 59 60 60 60 59 58 57 56 54 52 50 49 47 46 46 46 45 45 45 46 46 46 46 47 47 48 49 49 50 49 50 51 53 54 54 54 55 55 56
131 129 127 123 121 120 120 118 115 113 111 109 106 105 105 104 103 102 102 102 99 96 94 93 89 83 79 77 77 76 72 67 66 63 61 60 59 58 56 55 54 54 55 56 56 55 55 58 60 61 61 61 60 59 57 55 54 53 52 50 49 49 48 48 48 47 47 48 48 49 50 50 51 52 52 51 52 53 54 55 57 58 58 58 59 59
135 133 130 127 124 123 122 119 117 116 114 111 108 108 108 106 105 105 106 106 103 99 97 96 92 86 80 77 78 78 74 70 67 64 64 63 62 60 59 57 55 54 53 54 54 54 54 55 58 60 61 60 61 60 57 56 56 55 55 53 52 52 52 51 50 50 50 51 52 52 53 54 54 55 55 54 55 56 57 58 59 60 61 61 62 63
137 136 134 130 127 125 123 120 120 120 117 113 111 111 110 109 109 109 110 110 106 103 100 97 95 89 81 77 79 79 75 70 68 66 66 66 65 63 61 60 57 55 53 52 52 53 54 54 55 57 59 59 59 59 58 58 58 57 56 56 55 55 55 53 52 52 53 54 55 55 56 57 57 57 57 57 57 58 59 60 62 63 64 65 66 67
137 140 139 135 130 127 125 124 124 123 120 117 115 114 113 113 112 113 114 112 110 107 102 98 96 92 82 77 79 80 75 71 70 69 69 69 68 66 63 61 59 57 55 53 52 52 53 53 53 54 54 56 57 59 59 59 59 59 59 58 58 58 57 56 55 55 56 56 57 58 59 59 59 59 59 59 60 61 62 63 64 66 67 68 69 70
137 142 144 139 134 130 128 127 127 126 124 121 119 117 117 116 115 116 116 115 115 111 102 97 96 94 85 77 77 79 76 73 73 72 73 73 71 68 65 62 60 59 57 56 55 54 53 53 53 53 52 53 55 56 57 58 60 60 60 60 60 60 59 59 58 58 58 58 58 60 61 61 61 61 61 62 63 64 64 66 67 68 69 70 71 72
136 141 145 143 137 133 130 129 129 128 126 125 122 120 119 119 117 118 118 118 118 112 101 95 95 95 87 77 75 78 78 76 76 77 78 76 73 70 67 64 63 61 59 58 57 56 55 54 54 54 53 52 53 53 53 55 58 59 60 61 61 62 62 61 61 60 60 60 60 61 62 63 63 63 64 65 66 67 67 69 69 70 70 71 72 73
135 138 144 145 140 137 134 132 131 130 129 128 126 123 122 121 120 120 119 119 118 109 98 93 95 96 89 77 73 76 79 80 80 82 82 78 75 72 69 67 65 63 61 60 58 57 56 55 55 55 55 54 52 52 52 54 55 56 58 60 61 63 63 63 63 63 63 63 63 64 65 65 66 66 66 68 68 69 70 70 71 71 72 73 74 75
136 138 143 145 142 139 137 135 134 132 130 130 128 125 123 122 122 121 119 119 116 107 99 95 97 98 90 79 74 75 79 83 84 85 85 81 78 75 71 69 67 65 63 62 60 59 57 56 56 56 57 57 55 54 53 53 54 54 55 57 60 62 64 64 64 65 65 66 67 67 67 68 68 68 69 69 70 71 71 72 72 73 74 75 76 77
138 139 141 143 140 137 137 137 135 133 132 131 129 127 125 124 123 122 120 119 115 110 104 100 101 100 90 81 77 76 80 85 86 86 86 83 80 77 74 72 70 68 66 64 62 61 60 59 58 58 58 58 58 57 56 55 54 54 54 55 57 59 60 61 62 64 66 68 68 69 69 70 70 70 70 71 71 72 72 73 73 75 76 77 78 78
139 139 139 139 136 134 135 137 138 138 136 133 132 130 126 124 124 124 122 120 117 115 111 107 105 99 90 85 83 81 81 85 86 86 85 83 81 78 77 75 73 70 68 67 65 63 63 62 61 61 60 59 59 58 58 58 56 55 55 55 56 57 57 57 58 60 61 63 64 65 67 68 68 69 70 71 72 73 73 74 75 76 77 78 79 79
138 137 135 135 135 134 133 135 137 139 139 136 133 129 126 124 125 126 125 122 121 119 115 110 105 98 92 89 87 84 83 83 85 86 85 84 83 80 79 78 76 74 72 69 67 66 65 65 64 64 63 62 60 60 60 60 59 59 58 57 57 58 57 56 57 57 58 58 59 60 61 62 63 65 66 68 69 70 70 72 73 74 75 76 77 77
136 136 132 131 132 130 128 129 129 131 137 139 134 129 127 127 127 128 128 127 125 122 117 112 105 97 93 91 87 86 84 83 84 86 86 87 86 84 82 80 79 77 74 72 70 69 69 68 67 66 65 64 63 61 61 61 61 60 60 59 59 59 58 58 58 58 59 59 59 60 60 60 61 62 64 65 66 66 67 68 69 70 71 72 73 74
135 135 132 128 128 127 124 123 125 129 133 136 134 131 129 130 130 130 131 129 127 123 118 113 108 101 95 90 88 87 85 84 85 86 87 87 87 87 86 84 81 79 76 75 73 72 71 70 69 67 66 66 64 63 62 62 61 61 61 61 60 60 60 59 59 60 60 61 61 61 61 62 62 63 64 65 65 66 67 68 68 69 70 71 72 73
133 135 132 127 127 126 121 118 123 129 132 132 132 132 132 131 131 131 132 131 128 125 121 116 112 105 95 89 88 88 87 87 87 87 87 87 86 87 87 87 85 81 79 78 77 75 74 72 71 70 68 67 66 66 65 64 63 63 62 62 62 62 62 61 61 61 62 62 62 63 63 63 64 64 65 65 66 67 68 69 69 70 71 72 73 74
133 134 133 129 129 129 126 122 123 127 129 129 127 128 131 131 131 130 132 132 129 126 123 119 113 103 93 90 90 90 90 90 89 87 88 88 88 88 88 88 87 85 83 81 80 78 77 75 74 73 72 71 70 69 68 67 66 65 64 64 64 64 63 64 63 63 63 63 63 64 65 65 66 66 66 67 68 68 69 70 71 72 72 73 74 75
132 133 133 131 131 132 132 130 128 124 123 123 123 123 123 126 128 128 127 128 128 125 122 119 113 102 95 94 93 92 92 92 91 90 89 90 90 90 89 88 88 88 86 84 82 81 79 78 76 75 75 74 73 72 71 70 69 68 67 67 66 66 66 66 66 65 65 66 66 66 67 67 67 68 68 69 70 71 72 72 73 73 74 75 76 77
131 133 133 133 132 133 134 133 131 126 121 119 121 124 124 125 129 131 130 127 127 126 124 121 116 106 100 99 97 96 96 95 94 93 91 91 91 91 90 89 88 88 88 86 84 83 82 80 79 78 77 76 76 75 74 73 72 71 70 69 68 69 69 68 68 68 68 68 68 69 69 69 69 70 70 71 72 73 73 74 75 75 76 77 78 78
132 134 135 134 133 133 134 134 132 129 126 121 119 122 126 126 127 130 131 129 128 126 124 124 119 107 100 100 98 98 98 96 94 93 91 91 91 90 90 90 89 89 89 88 86 85 84 83 83 82 81 80 79 78 77 76 75 74 72 72 71 71 71 71 71 71 71 71 71 71 71 71 72 72 73 74 75 75 75 76 77 77 78 79 80 80
132 134 134 134 135 134 135 136 134 131 130 127 122 119 119 120 122 125 129 133 132 126 122 123 119 106 99 99 99 98 97 95 94 92 90 90 91 92 92 92 91 90 89 88 88 88 87 86 85 85 84 84 82 80 79 78 77 76 75 74 74 73 73 73 73 73 73 73 73 73 74 74 74 75 76 76 77 77 77 78 78 79 80 81 82 82
130 133 133 134 135 135 134 134 133 131 131 131 127 120 115 116 119 121 125 132 134 129 123 121 116 106 100 100 99 97 97 96 95 95 92 92 93 95 95 95 94 93 92 91 89 89 89 88 88 87 86 85 83 81 81 79 78 78 77 77 76 76 76 76 75 75 74 74 75 75 76 76 77 77 78 78 78 79 79 80 81 81 82 83 84 84
130 132 133 133 134 133 131 131 130 130 132 133 131 125 118 115 116 117 120 127 133 133 127 121 115 108 105 102 100 99 99 98 98 98 96 95 96 98 100 99 98 97 96 94 92 90 89 89 89 89 87 85 84 83 82 81 80 79 78 78 78 78 78 77 77 77 76 76 77 78 78 79 79 79 80 80 80 81 81 82 83 84 85 86 86 87
128 129 130 131 131 130 129 130 131 131 133 134 134 130 123 116 114 115 117 121 126 130 131 125 117 111 107 104 102 102 102 102 101 100 99 98 98 101 103 102 101 100 98 96 94 92 91 91 90 89 88 87 86 85 84 82 81 80 79 78 78 78 78 78 78 78 78 79 79 80 80 81 81 81 82 82 82 83 84 85 86 87 87 88 88 89
125 126 126 128 128 127 127 129 131 132 134 134 134 133 129 121 116 115 116 116 118 124 128 126 122 116 109 105 106 105 104 106 106 104 103 102 100 102 105 105 103 102 100 97 95 94 94 93 92 90 89 87 87 86 85 84 83 81 80 79 79 79 78 79 79 80 80 81 81 82 82 83 83 83 84 84 84 85 86 87 88 88 89 89 90 91
123 124 125 126 128 128 128 129 131 133 135 135 134 134 134 130 125 119 117 115 115 118 121 123 126 123 112 107 107 107 108 110 110 108 106 105 103 102 104 106 105 103 102 100 98 98 97 96 93 91 88 87 87 87 87 86 84 83 83 82 81 81 81 82 82 82 82 82 83 83 84 85 85 85 85 86 86 87 88 89 90 90 91 92 93 94
121 121 122 124 127 127 127 128 131 133 135 136 136 135 135 135 135 130 125 122 119 118 118 119 126 127 116 107 106 107 110 112 110 109 109 107 106 105 104 105 106 105 104 104 102 102 100 99 96 93 90 88 88 88 88 87 86 85 85 85 85 85 85 85 84 84 84 84 85 86 86 87 87 87 87 88 88 89 90 91 92 93 94 95 95 96
120 120 120 123 126 125 124 126 128 131 134 137 137 137 135 135 136 136 135 132 128 124 121 120 124 126 120 111 107 106 108 110 109 109 110 110 109 108 107 107 108 108 108 108 107 106 104 101 99 96 94 93 92 91 89 88 87 87 87 88 87 87 87 86 86 86 86 87 87 88 88 88 89 89 89 90 90 91 92 93 94 95 96 96 97 97
119 119 120 122 124 122 121 123 126 130 135 138 137 136 135 135 135 136 136 136 135 133 130 127 126 124 118 115 113 108 105 107 109 110 112 113 113 112 110 108 109 111 112 111 109 108 106 104 102 99 97 96 95 94 92 89 88 88 88 88 88 88 88 87 87 88 89 89 90 90 90 90 90 90 91 91 92 93 94 95 96 97 97 97 98 98
117 118 118 120 121 120 118 121 127 132 136 136 133 132 133 135 136 136 136 135 135 135 135 133 131 128 122 120 121 115 107 106 107 110 114 115 115 114 112 110 110 112 114 112 110 108 107 106 105 103 100 98 96 95 93 91 90 90 89 89 89 89 89 89 89 90 90 91 91 92 92 92 92 92 92 93 94 95 96 97 98 98 98 98 99 100
114 116 117 118 119 119 119 122 129 134 135 132 129 130 133 135 136 138 138 137 136 135 135 135 133 132 129 126 124 123 120 114 109 110 114 115 115 114 113 112 112 112 113 113 111 110 110 108 107 104 102 100 99 98 96 93 92 92 92 91 91 91 91 91 91 91 92 92 93 93 93 93 93 93 94 95 96 97 98 99 99 99 99 100 101 102
110 112 115 117 119 121 123 125 129 132 131 127 126 129 133 135 136 138 139 138 138 136 135 134 132 130 130 130 128 129 130 125 116 112 112 112 113 114 114 114 113 112 112 113 114 114 114 112 109 106 104 103 102 100 98 96 95 94 94 93 92 92 92 92 92 93 93 94 94 94 94 94 94 95 96 97 98 99 100 100 100 100 101 102 103 103
106 108 112 115 119 121 123 125 127 129 127 125 125 127 130 132 133 136 139 138 137 136 136 135 133 130 129 130 131 132 133 133 125 114 108 108 110 112 114 115 116 115 114 114 116 116 117 116 113 111 107 105 102 100 98 97 96 95 94 94 94 94 94 94 94 95 95 95 96 96 96 96 96 97 98 99 99 100 101 100 101 101 102 103 104 105
106 107 110 114 117 120 122 123 125 126 124 122 122 123 125 129 132 136 139 138 136 136 137 137 135 133 129 128 130 132 133 135 129 113 103 104 108 111 115 116 117 117 117 118 118 119 119 119 117 114 111 107 104 102 100 98 96 96 95 95 95 95 95 95 96 97 97 97 97 97 98 98 99 99 100 100 100 101 101 101 101 102 103 104 105 106
108 109 111 114 116 119 122 123 123 123 121 118 117 120 123 127 131 135 138 137 134 134 135 136 134 132 130 129 130 131 133 136 128 110 102 107 111 115 118 118 118 119 120 122 122 121 121 121 118 116 112 109 106 104 102 100 98 97 96 96 97 97 97 97 99 99 99 99 99 99 99 100 100 101 101 101 101 101 101 102 102 103 104 105 106 107
110 111 112 114 115 117 119 121 121 121 119 116 116 119 122 125 130 135 136 135 132 131 132 134 133 132 131 132 133 133 133 133 126 113 110 115 117 118 119 120 119 120 122 123 123 122 122 121 119 116 113 110 108 107 105 103 101 99 98 99 99 99 99 101 102 102 102 101 101 101 101 101 102 101 101 101 101 101 102 102 103 104 105 106 106 106
112 112 113 113 114 115 117 119 118 117 116 115 116 118 121 125 129 132 132 131 128 126 128 131 130 130 132 135 135 135 133 130 126 122 121 122 121 119 118 117 119 120 121 121 121 120 121 121 119 117 115 113 111 110 107 106 104 102 102 101 101 102 103 104 105 104 103 103 102 102 102 103 102 101 101 101 101 101 103 103 103 104 104 105 105 105
113 113 113 114 114 116 118 118 117 115 113 113 115 118 120 125 128 128 128 128 125 123 126 130 129 129 131 132 132 132 131 131 130 128 126 125 124 120 115 113 114 116 117 118 118 119 119 120 119 118 116 115 113 112 110 107 105 104 104 103 103 105 106 107 106 105 104 103 103 103 103 103 103 102 101 101 101 102 103 103 103 102 102 102 103 103
115 114 114 114 115 117 118 119 117 114 111 112 116 118 120 122 125 125 125 125 124 123 125 128 128 126 126 127 127 128 128 129 130 128 125 124 124 122 117 113 112 111 113 115 115 116 117 117 117 116 116 116 115 112 110 107 105 105 104 103 105 106 107 106 106 104 104 103 103 104 104 103 102 102 101 101 101 101 102 102 101 100 100 99 99 99
114 114 114 115 116 117 118 119 117 113 110 111 115 118 119 120 122 123 122 122 122 121 122 124 124 123 122 121 122 123 124 124 125 124 121 120 120 119 117 116 113 111 112 112 113 114 115 115 114 114 114 114 113 112 111 109 107 106 105 105 105 106 106 106 105 104 103 104 104 104 104 103 102 101 101 100 100 100 99 99 99 99 98 97 96 94
112 114 115 117 118 119 118 117 116 114 112 112 115 117 116 117 118 119 119 119 119 119 120 121 121 120 119 118 118 119 120 118 118 117 116 115 114 113 113 113 113 112 111 111 111 111 111 112 111 111 111 111 111 110 110 108 107 107 106 106 106 105 105 104 103 102 103 103 103 102 102 102 101 100 98 97 97 97 97 97 97 97 96 94 91 90
110 113 115 117 118 119 118 116 115 115 113 113 115 117 116 114 115 116 117 117 118 119 119 118 118 117 117 115 114 115 116 115 113 113 112 111 110 108 106 106 107 108 108 108 108 107 108 108 109 109 109 109 109 109 108 107 106 106 106 106 105 105 104 103 101 101 101 101 100 100 100 99 98 97 95 95 94 94 95 95 95 93 91 89 87 86
108 110 112 114 116 117 117 117 116 116 115 114 115 117 116 115 114 115 116 116 118 118 118 117 117 116 115 115 112 110 111 111 110 109 108 106 102 100 98 96 96 99 101 102 102 102 102 103 103 103 104 104 104 105 105 104 103 103 104 105 104 104 103 102 100 100 101 100 100 99 98 97 96 95 94 93 93 93 93 92 90 88 87 85 85 85
105 107 108 110 112 114 114 116 117 118 118 117 116 116 117 117 117 117 117 117 117 117 117 117 117 115 114 114 113 111 110 109 107 105 102 98 95 94 93 90 88 88 91 93 94 93 92 91 91 91 92 94 96 98 99 100 100 100 100 100 100 100 100 99 99 98 97 96 95 95 95 95 94 93 93 92 91 90 88 87 85 84 84 84 84 84
101 102 103 106 108 110 110 112 116 119 120 120 119 118 119 120 120 120 119 117 115 115 115 116 117 116 114 113 113 113 110 108 106 104 99 94 91 90 90 87 82 79 79 81 82 82 81 81 81 81 82 85 88 89 91 91 91 91 92 93 94 95 94 93 93 92 92 91 91 92 92 92 90 89 89 87 86 85 84 83 82 83 83 83 83 82
98 98 100 102 104 105 106 108 113 118 120 120 122 121 122 122 123 122 120 118 115 113 113 115 116 116 114 112 112 113 111 107 106 104 100 95 91 89 88 85 80 75 72 71 72 74 75 75 77 78 79 81 83 83 84 84 84 84 84 84 85 86 87 88 89 90 91 90 89 88 86 85 84 83 82 82 81 81 81 81 82 82 82 81 81 81
98 98 99 100 100 99 100 103 109 115 117 119 122 124 124 124 124 122 121 119 115 112 113 114 116 117 116 114 112 112 110 107 106 104 101 99 96 95 93 90 83 78 75 73 73 73 74 73 74 76 78 78 79 79 79 81 83 82 80 80 82 85 87 88 88 86 84 82 80 79 78 78 78 79 79 79 80 80 80 81 81 80 80 80 80 79
Wind_Direction
235 235 235 235 236 236 237 238 239 238 239 240 241 240 240 241 242 243 244 245 246 246 245 244 242 242 246 245 244 244 242 241 243 243 242 242 244 246 247 247 247 248 249 250 250 250 250 252 253 255 256 255 254 254 255 259 262 265 266 266 268 268 267 266 266 267 267 266 268 275 280 280 279 278 277 278 279 281 283 286 289 291 292 292 292 291
235 236 236 236 236 236 236 237 237 237 237 239 240 241 240 241 242 243 244 245 245 245 244 244 242 241 244 245 243 243 242 240 242 243 243 243 244 246 247 247 247 248 248 248 248 248 249 250 251 252 254 255 257 258 259 261 263 265 267 268 268 267 266 265 265 265 265 268 271 275 279 278 277 276 274 276 278 280 282 285 288 289 292 294 295 294
236 236 237 236 236 236 237 237 237 237 237 238 239 240 241 241 243 244 245 246 246 245 244 244 243 241 243 244 243 242 242 240 241 243 244 244 244 245 246 248 248 249 249 248 247 248 249 250 250 251 252 254 257 260 261 261 262 264 266 268 267 266 265 263 263 262 262 267 271 273 274 274 273 272 273 277 278 279 283 285 286 288 290 292 293 294
237 237 236 236 236 237 237 238 237 237 237 238 239 241 242 243 244 245 246 247 247 246 245 244 243 241 242 244 243 242 241 241 242 242 244 245 244 244 245 248 249 249 249 249 248 248 249 249 250 251 252 254 256 258 259 260 262 264 266 267 266 263 263 262 263 261 260 263 266 267 269 270 270 271 275 278 279 280 283 283 285 286 287 289 290 292
237 236 236 236 236 237 237 238 238 238 238 239 240 241 243 244 245 245 246 247 247 247 245 245 244 242 242 244 244 242 240 241 242 243 244 245 244 244 245 247 248 249 251 251 249 249 249 249 249 251 252 253 255 256 258 260 263 264 264 264 263 261 262 262 263 263 261 261 262 264 267 269 271 273 275 277 278 281 283 283 285 285 286 287 288 289
237 236 236 236 236 237 237 238 238 238 238 239 240 241 243 244 245 245 246 246 247 247 246 245 245 243 241 242 244 243 241 241 243 243 244 245 245 244 245 246 247 249 251 253 252 250 250 250 250 251 253 254 255 256 258 260 262 262 261 260 260 261 262 262 263 263 262 261 262 265 269 272 274 275 275 277 280 282 282 283 284 284 285 286 287 288
237 237 237 236 236 237 238 238 239 239 239 239 240 241 242 243 244 245 245 246 246 246 245 245 244 242 241 241 243 244 243 242 243 244 244 245 246 245 245 245 247 249 251 253 253 253 251 251 252 252 253 255 256 256 258 259 259 259 259 259 259 260 260 261 262 262 263 263 265 268 271 273 274 275 277 279 280 281 281 282 283 284 285 286 287 287
239 238 238 237 236 237 238 239 239 240 240 240 240 241 242 243 244 245 245 245 245 245 245 245 244 242 241 241 243 244 244 242 243 244 245 245 246 246 246 246 247 248 250 253 254 255 253 252 253 254 254 255 256 257 257 257 257 257 258 258 258 258 258 259 261 262 263 264 266 268 271 272 273 274 276 278 278 279 280 280 281 283 284 285 287 287
240 240 239 238 237 237 237 238 239 240 240 240 240 241 242 242 243 244 245 245 245 244 244 245 245 243 241 240 243 244 244 244 244 244 246 247 246 246 247 248 248 249 250 253 255 255 255 254 253 254 255 255 255 256 255 255 256 256 257 257 257 257 257 258 260 260 261 263 264 266 268 270 272 274 276 277 277 277 278 279 280 282 283 284 285 286
240 241 241 239 237 237 237 237 238 239 240 240 240 240 241 241 242 243 244 245 245 244 243 244 245 244 241 238 241 244 244 244 244 244 245 246 247 247 247 249 250 250 251 252 254 255 256 256 255 255 256 257 256 255 255 255 256 256 256 256 257 257 258 258 259 259 260 261 263 265 266 268 270 272 274 275 276 276 277 278 280 281 282 283 284 285
238 240 241 241 239 237 236 237 237 238 239 239 239 239 240 241 241 242 243 244 244 243 242 242 244 245 242 238 240 244 244 243 244 244 244 245 246 247 247 249 250 252 252 253 254 255 256 257 257 257 256 257 257 257 257 256 256 255 256 256 257 258 258 258 258 259 260 261 263 265 266 268 269 271 272 273 274 275 276 277 278 279 280 282 283 284
237 239 241 242 241 239 238 238 238 238 239 239 239 239 240 241 241 242 243 244 244 244 242 242 244 245 244 240 240 243 244 243 243 244 243 243 244 246 247 248 249 250 252 253 254 255 256 257 258 259 258 257 258 259 259 258 257 256 256 257 258 258 259 259 259 260 261 262 263 265 267 268 269 271 272 272 274 275 276 277 278 279 281 282 284 285
235 238 241 242 242 241 240 239 239 239 239 240 239 239 239 240 241 242 243 244 245 245 244 244 245 246 245 240 237 240 244 244 243 243 244 244 244 244 246 247 248 249 250 252 254 255 256 257 257 258 258 258 259 259 259 259 259 259 258 258 258 259 259 260 261 262 262 263 264 266 267 269 270 271 272 273 274 275 276 277 279 280 282 283 283 284
233 236 239 241 241 242 242 241 240 240 240 241 241 240 240 241 242 242 243 245 246 246 245 244 245 245 244 241 236 237 243 245 243 244 244 244 244 244 244 245 246 248 249 250 252 254 255 256 257 258 259 259 260 260 260 260 261 261 261 260 260 260 260 261 262 263 264 265 265 267 268 270 271 271 272 273 274 275 276 278 279 280 281 282 283 284
231 233 237 240 242 243 244 245 244 243 242 242 241 241 240 241 242 243 244 245 245 245 243 241 242 243 242 240 236 234 239 244 244 244 244 244 244 244 245 245 245 247 248 249 250 252 254 255 256 257 258 259 261 261 262 261 261 261 261 262 262 263 263 263 264 264 265 265 266 268 269 270 271 272 273 274 275 276 277 278 279 280 281 282 283 284
231 231 234 238 240 241 243 244 245 245 243 242 242 241 241 241 242 243 243 243 243 243 242 240 239 240 239 237 235 233 236 242 246 246 246 246 245 245 245 246 246 246 247 248 249 251 253 254 255 256 257 259 260 261 262 263 263 263 263 264 264 265 265 266 266 266 266 267 268 269 269 270 271 272 273 274 274 275 277 278 279 280 281 282 283 284
232 232 232 235 238 239 240 242 244 245 244 243 242 242 242 241 242 243 243 243 243 243 242 241 240 239 238 237 237 235 235 239 245 248 248 247 247 246 245 246 246 246 246 247 248 250 251 253 255 256 257 258 259 260 262 263 265 266 267 267 267 267 268 268 268 269 269 270 270 270 271 271 272 273 274 274 275 276 277 278 279 280 281 282 283 284
231 232 231 232 236 237 238 240 241 243 245 244 242 241 241 241 241 242 242 242 242 242 242 242 241 239 238 238 238 238 237 237 242 247 249 248 248 247 246 246 246 247 247 248 248 249 251 252 253 255 257 258 259 259 261 262 264 266 267 268 269 270 270 270 271 271 272 272 272 273 274 274 275 275 276 276 277 278 279 279 280 281 282 283 284 285
230 231 229 229 232 234 235 236 238 241 244 245 245 242 241 241 241 242 242 242 242 242 242 242 241 238 236 236 237 237 237 238 239 242 247 249 249 249 248 247 247 247 248 248 249 249 251 252 253 254 256 258 259 259 261 262 263 265 266 268 269 270 271 272 273 273 274 274 275 276 277 277 277 277 278 278 279 280 280 281 282 283 283 284 285 285
230 231 230 228 228 230 232 233 235 239 242 245 246 245 243 241 241 241 242 242 241 242 241 240 240 238 236 234 235 236 237 238 239 240 243 247 250 251 250 250 249 248 248 248 249 250 251 252 253 254 255 256 258 259 261 262 263 264 265 267 268 269 271 272 273 273 274 275 276 277 278 278 279 279 280 280 281 282 282 282 283 284 284 285 285 285
229 230 230 228 226 227 229 232 235 239 241 243 245 247 247 246 243 242 243 243 242 242 242 241 240 240 238 234 234 236 237 238 239 240 242 244 248 251 251 252 251 250 248 248 249 250 251 252 253 253 255 256 257 259 260 261 263 264 265 266 267 269 270 271 272 273 274 275 276 277 278 278 280 280 281 282 282 283 283 284 285 285 286 286 286 287
229 229 229 228 227 227 229 232 235 237 238 240 243 245 247 248 247 244 242 243 244 243 242 242 241 239 237 234 233 234 236 237 239 240 241 242 244 247 250 251 252 252 250 249 249 249 250 251 252 254 255 256 258 259 260 261 262 263 264 265 266 268 269 270 271 272 273 274 275 276 277 279 280 280 281 282 283 283 284 285 286 286 287 287 287 288
228 229 229 228 227 227 228 230 233 235 236 237 240 242 243 246 247 247 243 241 242 242 241 241 239 236 234 233 232 232 234 236 237 238 240 241 242 245 248 250 252 253 253 252 251 251 251 252 253 254 255 256 258 259 260 261 262 263 264 265 266 267 269 270 271 272 273 274 275 276 278 279 279 281 282 282 283 284 285 285 286 287 287 288 288 289
227 227 227 227 227 227 228 229 230 233 235 236 238 241 243 244 247 249 249 245 242 241 241 241 239 235 233 233 232 232 234 236 237 238 240 243 244 245 247 249 251 253 254 255 254 254 254 254 254 255 255 256 257 259 260 262 263 264 265 266 267 268 269 270 271 272 274 275 276 277 278 279 280 281 282 282 283 284 285 286 287 287 288 288 289 290
227 228 227 227 227 226 227 228 229 230 233 235 237 239 241 243 245 248 250 250 246 242 241 242 241 236 233 233 233 234 235 237 238 240 241 243 246 247 248 248 250 251 253 254 254 254 255 255 256 256 257 257 257 258 260 261 263 264 265 266 267 269 269 270 271 272 273 274 276 277 278 279 280 281 282 283 284 285 286 286 287 287 288 289 290 291
227 228 228 227 228 227 228 229 230 230 232 234 236 236 238 241 244 246 248 251 251 247 242 241 242 239 234 233 233 234 235 237 239 240 240 242 244 246 247 247 248 249 250 251 252 253 254 254 255 257 257 258 259 259 260 261 262 264 265 266 267 268 269 270 271 272 273 275 276 277 278 280 281 282 282 283 284 285 286 287 287 288 289 290 291 291
228 228 228 228 228 228 228 229 231 231 231 233 234 236 237 240 243 245 247 249 251 251 247 242 240 239 236 234 232 232 234 236 237 239 240 241 243 245 246 246 247 247 248 249 250 251 253 254 254 256 257 258 260 261 262 262 263 264 265 266 267 268 269 270 271 273 274 275 276 278 279 280 281 281 282 283 284 285 286 287 288 289 289 290 291 291
228 228 229 229 229 228 228 228 229 230 231 232 233 234 236 238 240 242 245 248 250 251 251 247 242 238 236 235 233 231 232 234 236 238 239 239 241 244 245 246 246 247 248 249 250 251 252 253 254 255 256 258 259 261 262 263 264 265 266 267 268 269 270 271 272 273 274 276 277 278 279 280 281 281 283 284 285 286 287 288 289 289 290 291 291 292
229 229 229 230 230 229 228 228 229 229 230 231 232 233 233 235 237 239 243 246 249 251 252 252 249 242 235 234 233 231 230 232 234 236 237 238 239 242 245 246 246 247 248 249 249 250 251 252 253 254 255 256 258 260 261 263 264 265 266 267 268 269 271 272 273 274 276 277 278 279 280 281 281 283 284 285 286 287 288 288 289 290 290 290 291 292
229 229 229 229 229 229 228 228 228 229 230 231 232 232 233 233 234 236 239 241 245 249 251 252 252 247 238 233 233 232 230 230 232 234 236 237 239 240 243 246 247 247 248 248 249 249 250 251 252 253 255 256 257 259 260 261 263 264 266 267 268 269 270 272 273 274 275 277 278 279 280 281 282 283 284 285 286 287 287 288 289 289 289 290 291 292
229 229 229 229 229 229 228 228 228 228 229 230 231 232 232 233 233 235 236 237 240 243 247 249 251 250 245 238 235 234 233 231 231 233 236 237 239 239 241 244 246 247 248 248 249 249 250 251 252 253 255 256 257 258 259 261 262 263 265 266 267 268 269 271 272 273 274 276 277 278 279 280 281 282 283 284 285 286 286 287 287 288 288 289 291 292
228 229 229 230 230 229 229 229 229 229 230 230 231 231 231 232 234 235 236 238 239 240 243 246 250 252 252 248 241 235 234 234 232 232 235 238 239 240 241 242 245 247 248 249 249 250 250 251 252 253 254 255 257 258 259 261 262 263 264 265 266 267 268 270 271 272 274 275 276 277 278 279 280 281 282 283 284 285 285 286 286 287 288 289 290 291
228 228 228 230 230 229 228 229 230 230 230 230 231 232 232 232 234 236 237 239 240 241 242 244 247 249 251 252 248 239 232 233 233 233 234 237 239 240 240 242 244 246 248 249 250 250 251 252 252 253 253 254 256 257 258 259 261 262 263 264 265 266 268 269 271 272 273 274 275 276 277 279 280 281 281 282 283 284 285 285 286 287 288 289 290 291
228 228 228 229 230 229 228 229 230 230 230 230 230 232 233 234 234 235 236 238 240 241 242 243 245 246 247 249 252 248 239 234 233 234 234 235 237 239 240 241 243 245 248 249 250 251 251 252 252 252 253 254 255 256 257 258 259 261 262 263 264 266 267 269 270 271 272 273 274 276 277 278 279 280 281 282 283 283 284 285 286 287 288 289 290 290
227 228 228 229 230 229 227 228 229 230 230 230 230 231 232 234 235 235 236 237 238 240 242 243 244 245 246 247 250 250 247 241 236 235 236 236 237 238 240 241 243 244 247 249 250 251 252 252 252 252 253 253 254 255 256 257 259 260 261 263 264 265 267 268 269 270 271 272 274 275 276 277 278 279 280 281 282 283 284 284 286 287 288 288 289 290
228 229 229 229 229 229 228 227 229 230 230 230 229 230 232 233 235 236 237 237 238 239 241 243 244 245 246 247 247 248 249 247 241 236 236 237 237 238 239 241 242 244 246 249 250 251 252 252 252 253 253 254 255 256 257 257 258 260 261 262 263 265 266 267 268 269 271 272 273 274 275 276 277 278 279 280 281 282 283 284 285 286 287 288 288 289
229 229 230 230 230 229 229 229 229 230 230 230 230 230 232 233 234 236 238 238 238 239 239 241 242 244 245 246 248 249 250 250 247 241 237 238 239 240 240 241 242 243 245 247 249 250 252 252 253 253 254 254 255 256 257 257 258 259 261 262 263 264 265 266 268 269 270 271 273 274 275 276 277 277 278 280 281 282 283 284 285 286 286 287 288 289
228 228 229 230 230 231 230 230 230 230 230 229 230 231 232 234 234 236 237 238 238 239 240 240 241 243 244 246 248 250 251 252 250 245 241 240 240 240 241 241 242 243 243 244 246 248 250 252 252 253 254 255 256 257 258 258 259 260 262 263 263 264 265 266 267 268 270 271 272 273 274 275 276 277 278 280 281 281 282 283 284 285 286 287 288 289
227 227 228 229 230 230 231 230 230 230 229 229 230 232 233 234 235 235 236 237 238 239 241 241 242 242 244 246 247 249 251 253 253 248 244 244 243 241 240 240 240 242 243 243 244 246 248 250 252 253 254 256 257 258 259 259 260 261 262 263 263 264 265 265 267 268 270 271 272 273 273 274 275 277 278 279 280 281 282 283 284 285 286 287 288 289
228 228 228 229 230 230 231 232 231 229 228 228 229 231 232 234 235 236 236 237 238 239 240 242 242 242 243 245 246 247 250 253 254 252 249 248 246 244 243 241 240 241 243 244 245 245 247 249 251 254 255 256 257 258 259 260 261 261 262 262 263 264 265 266 267 269 270 271 272 272 273 274 276 277 278 279 280 281 282 283 284 285 286 287 288 288
228 228 228 229 230 231 232 232 232 231 229 228 228 230 232 234 235 236 237 237 238 239 240 241 242 243 243 244 246 248 250 252 254 253 252 252 250 247 245 243 242 242 243 245 246 247 248 249 251 253 255 256 257 258 259 260 261 261 262 263 264 265 266 267 268 270 270 271 272 272 273 274 276 277 278 279 280 281 282 283 284 285 286 287 287 288
229 229 229 229 229 230 232 232 232 231 229 228 228 229 231 234 235 236 237 238 238 239 240 241 242 243 244 245 247 248 250 252 253 253 254 255 255 253 250 247 246 245 245 246 247 248 248 249 250 252 253 255 256 258 259 260 261 262 263 264 265 266 266 267 268 269 270 271 272 273 273 274 275 276 277 278 279 280 281 282 283 284 285 286 287 289
230 230 229 230 230 230 231 232 232 231 229 229 230 230 230 232 235 236 237 237 238 239 240 242 243 244 245 246 248 249 250 251 253 254 255 256 258 258 257 254 252 251 250 249 249 249 249 250 251 252 253 254 256 257 259 260 261 262 263 264 264 265 266 266 268 269 270 271 271 272 273 274 275 276 277 278 279 280 281 282 283 283 284 285 287 288
232 231 231 231 231 231 232 232 232 231 230 230 232 232 231 231 234 236 237 238 238 239 240 242 243 245 246 247 248 249 251 252 254 255 256 257 258 259 259 258 257 255 254 253 252 251 251 251 251 252 253 255 256 257 258 260 260 261 262 262 263 264 265 266 267 268 269 270 271 272 273 274 275 276 277 278 278 279 279 280 281 282 283 284 286 287
233 233 232 231 232 232 232 233 233 233 232 231 233 234 233 232 234 235 237 238 239 240 240 242 243 245 246 247 248 249 251 252 253 255 256 256 257 258 258 259 258 257 256 255 254 253 253 252 252 252 253 254 255 256 258 259 260 260 261 262 262 263 264 266 267 268 269 270 271 272 273 274 275 276 276 276 277 278 278 279 280 281 282 283 284 285
233 233 232 232 231 232 232 233 234 234 233 233 233 235 235 234 235 235 236 237 239 240 240 241 242 244 245 246 247 249 250 251 253 254 255 256 257 258 258 259 259 258 258 257 257 256 255 254 254 254 254 255 255 256 257 258 259 259 260 261 262 263 265 266 267 268 269 270 271 272 273 274 274 275 275 276 276 277 278 278 279 280 281 282 283 285
234 233 233 232 232 231 231 232 232 233 234 234 234 235 236 236 236 236 236 236 237 239 240 241 242 242 244 245 246 247 249 251 252 253 255 256 257 258 259 259 260 261 260 260 260 259 258 257 256 256 256 256 256 257 257 257 258 258 260 261 262 264 265 266 267 268 269 270 271 272 272 273 273 274 274 275 275 276 276 277 278 280 281 282 283 285
234 233 233 233 233 232 231 231 232 232 232 233 234 235 236 237 237 237 237 237 236 237 239 240 241 242 242 244 245 246 248 250 251 253 254 255 256 256 258 259 260 261 262 263 262 262 261 260 259 258 257 256 256 256 257 257 258 259 260 261 262 264 265 266 267 268 269 269 270 271 271 272 272 273 273 273 274 274 275 276 278 279 281 282 284 287
236 235 234 233 233 232 231 231 231 231 231 231 232 233 234 236 236 237 237 237 237 237 237 239 241 241 242 243 244 246 248 249 250 251 251 252 253 254 256 257 258 259 260 261 262 262 261 260 260 259 258 258 257 257 258 258 259 259 260 261 262 264 265 266 266 267 268 269 269 270 270 270 271 271 271 272 273 273 274 275 276 277 280 283 287 290
238 238 237 235 233 232 231 231 231 232 231 231 231 232 233 234 236 237 237 237 237 237 237 238 240 241 242 242 243 245 246 248 249 249 249 249 250 252 253 255 256 256 255 256 257 257 257 258 259 259 258 258 259 259 259 259 258 258 259 260 262 263 265 266 267 268 269 269 269 269 269 269 270 270 271 271 272 272 273 274 276 278 282 287 291 294
240 240 239 238 236 233 232 231 232 232 231 231 231 231 232 233 235 236 237 238 238 237 238 238 239 241 242 242 242 243 245 246 247 248 247 246 247 249 251 254 254 254 253 252 252 253 253 253 254 255 256 256 256 255 255 256 257 258 259 260 263 266 269 270 270 270 270 269 269 268 268 268 269 269 270 270 271 272 273 276 279 283 287 292 295 296
Height
10698 10702 10709 10725 10739 10745 10748 10751 10755 10760 10763 10761 10762 10768 10775 10779 10784 10786 10785 10786 10791 10802 10812 10816 10823 10823 10818 10825 10831 10834 10841 10843 10840 10840 10842 10844 10846 10848 10851 10852 10852 10853 10854 10858 10861 10860 10860 10862 10863 10864 10865 10866 10868 10870 10871 10871 10871 10872 10872 10873 10874 10873 10872 10872 10873 10872 10872 10872 10872 10871 10870 10870 10870 10869 10868 10867 10867 10866 10865 10865 10863 10862 10860 10859 10858 10857
10688 10693 10709 10725 10730 10731 10735 10738 10741 10746 10750 10750 10753 10759 10766 10772 10777 10777 10776 10779 10783 10794 10804 10806 10814 10819 10814 10817 10825 10830 10838 10839 10834 10835 10838 10841 10843 10845 10846 10846 10846 10847 10850 10853 10855 10855 10856 10857 10859 10861 10861 10861 10862 10865 10867 10867 10867 10868 10868 10869 10870 10869 10868 10868 10868 10868 10868 10869 10868 10867 10867 10867 10866 10865 10864 10863 10863 10862 10862 10861 10860 10858 10856 10855 10853 10853
10677 10691 10710 10716 10716 10721 10726 10728 10730 10735 10739 10741 10745 10750 10758 10767 10770 10770 10772 10772 10776 10786 10795 10798 10806 10813 10808 10810 10819 10827 10832 10832 10829 10832 10834 10837 10840 10841 10840 10839 10841 10843 10844 10847 10849 10851 10852 10853 10855 10856 10857 10857 10858 10860 10861 10861 10863 10863 10864 10866 10866 10865 10864 10864 10864 10864 10865 10865 10864 10863 10863 10863 10862 10861 10860 10859 10858 10857 10858 10857 10856 10854 10853 10851 10849 10848
10671 10690 10701 10698 10704 10715 10716 10717 10720 10725 10730 10735 10741 10747 10755 10762 10764 10767 10766 10762 10768 10778 10787 10790 10797 10806 10805 10806 10815 10821 10824 10825 10826 10829 10831 10834 10836 10835 10835 10836 10837 10837 10838 10841 10845 10846 10847 10849 10851 10851 10852 10853 10854 10854 10854 10855 10858 10860 10861 10862 10862 10860 10859 10859 10859 10860 10860 10860 10859 10859 10859 10858 10858 10857 10856 10854 10853 10853 10853 10852 10850 10850 10849 10847 10846 10844
10663 10678 10682 10684 10697 10704 10701 10703 10709 10716 10725 10731 10737 10744 10751 10754 10756 10760 10757 10754 10760 10770 10779 10782 10788 10801 10804 10803 10808 10811 10816 10821 10823 10827 10829 10830 10831 10831 10832 10832 10832 10831 10832 10836 10840 10842 10843 10845 10846 10846 10848 10849 10850 10849 10849 10851 10854 10856 10857 10857 10856 10855 10854 10855 10855 10855 10855 10855 10854 10854 10853 10853 10853 10852 10851 10849 10848 10849 10847 10845 10845 10844 10843 10843 10842 10840
10651 10659 10667 10676 10686 10688 10687 10693 10700 10708 10718 10723 10731 10739 10742 10743 10745 10748 10748 10747 10751 10761 10771 10773 10780 10796 10799 10798 10801 10803 10811 10818 10819 10823 10826 10824 10825 10827 10828 10827 10827 10828 10829 10831 10835 10838 10840 10840 10841 10842 10843 10844 10845 10844 10846 10848 10850 10850 10851 10852 10851 10851 10850 10850 10850 10850 10850 10850 10849 10849 10848 10848 10847 10846 10845 10845 10845 10844 10842 10840 10839 10838 10838 10838 10837 10836
10637 10645 10654 10665 10673 10676 10679 10685 10694 10702 10708 10717 10727 10731 10730 10732 10735 10738 10739 10737 10741 10752 10760 10763 10772 10787 10792 10794 10796 10797 10806 10814 10814 10819 10821 10819 10821 10822 10823 10823 10824 10825 10825 10827 10830 10833 10836 10836 10836 10837 10837 10839 10839 10840 10843 10844 10844 10843 10844 10846 10847 10846 10845 10845 10845 10846 10845 10845 10845 10844 10843 10843 10841 10840 10840 10841 10841 10839 10837 10835 10834 10832 10832 10831 10830 10830
10628 10634 10641 10653 10663 10667 10672 10682 10692 10695 10699 10712 10722 10719 10720 10727 10728 10729 10727 10725 10732 10743 10749 10754 10764 10777 10788 10793 10792 10791 10799 10808 10811 10814 10814 10813 10815 10817 10818 10819 10821 10822 10822 10824 10826 10828 10831 10831 10831 10831 10832 10833 10834 10836 10839 10839 10838 10838 10838 10840 10841 10840 10840 10840 10841 10842 10841 10840 10840 10839 10838 10837 10836 10835 10836 10836 10836 10834 10832 10830 10829 10827 10826 10825 10824 10822
10616 10618 10628 10643 10653 10659 10669 10680 10682 10681 10688 10704 10709 10706 10712 10718 10718 10718 10714 10713 10722 10730 10740 10750 10756 10769 10786 10791 10785 10786 10795 10804 10807 10807 10807 10807 10809 10811 10813 10815 10816 10819 10820 10821 10822 10823 10825 10826 10826 10826 10826 10828 10829 10830 10832 10832 10832 10833 10833 10833 10834 10833 10834 10836 10837 10837 10836 10835 10834 10834 10833 10832 10831 10831 10831 10831 10830 10828 10827 10825 10823 10822 10821 10819 10817 10815
10599 10605 10615 10626 10637 10650 10662 10666 10665 10668 10679 10692 10694 10695 10700 10703 10706 10705 10700 10703 10710 10716 10733 10746 10749 10761 10781 10788 10781 10782 10794 10799 10798 10799 10801 10800 10801 10805 10809 10810 10813 10816 10817 10818 10817 10817 10818 10820 10821 10822 10822 10823 10823 10823 10825 10826 10827 10828 10827 10828 10828 10827 10829 10831 10831 10831 10831 10830 10829 10828 10827 10827 10826 10826 10826 10825 10824 10822 10821 10819 10818 10817 10815 10813 10811 10809
10589 10595 10596 10605 10621 10638 10647 10649 10653 10659 10668 10674 10678 10684 10687 10689 10695 10692 10690 10696 10693 10701 10727 10741 10744 10754 10772 10785 10782 10780 10788 10790 10789 10791 10791 10790 10794 10799 10804 10807 10809 10811 10812 10812 10813 10812 10813 10814 10815 10816 10817 10817 10816 10817 10819 10820 10821 10821 10822 10823 10822 10822 10823 10824 10825 10825 10825 10825 10825 10822 10821 10821 10821 10821 10821 10819 10817 10816 10815 10813 10812 10811 10809 10807 10805 10803
10582 10582 10584 10597 10613 10624 10633 10639 10645 10650 10655 10659 10666 10676 10676 10677 10685 10682 10683 10685 10679 10698 10730 10741 10743 10748 10765 10787 10785 10777 10779 10781 10781 10780 10779 10783 10790 10794 10798 10801 10803 10804 10806 10806 10807 10807 10808 10809 10810 10810 10811 10810 10811 10812 10813 10813 10814 10815 10816 10817 10817 10817 10817 10818 10818 10820 10820 10820 10819 10817 10816 10815 10814 10815 10814 10811 10810 10809 10808 10806 10805 10804 10803 10801 10799 10797
10577 10576 10580 10591 10599 10607 10617 10625 10632 10637 10644 10647 10653 10665 10666 10667 10673 10673 10676 10677 10678 10706 10733 10740 10740 10741 10760 10784 10782 10773 10770 10769 10771 10770 10771 10778 10784 10787 10791 10794 10796 10799 10800 10800 10801 10801 10802 10803 10804 10804 10804 10805 10806 10807 10807 10807 10808 10809 10810 10811 10812 10811 10811 10813 10813 10814 10814 10814 10813 10812 10811 10810 10809 10809 10807 10805 10804 10802 10802 10800 10799 10798 10796 10794 10792 10790
10573 10572 10570 10576 10588 10598 10603 10609 10620 10630 10637 10639 10645 10657 10662 10662 10662 10665 10673 10674 10682 10707 10726 10732 10730 10731 10754 10774 10774 10773 10764 10755 10761 10764 10765 10771 10776 10780 10784 10787 10790 10792 10794 10794 10795 10796 10796 10797 10798 10798 10799 10799 10800 10800 10801 10802 10802 10803 10804 10805 10805 10804 10805 10807 10808 10808 10808 10808 10807 10806 10806 10805 10804 10803 10801 10800 10798 10797 10796 10795 10793 10792 10789 10787 10785 10783
10562 10563 10562 10572 10590 10598 10598 10603 10615 10622 10624 10628 10635 10643 10650 10653 10653 10659 10668 10670 10680 10696 10707 10715 10714 10721 10749 10763 10765 10767 10755 10745 10751 10755 10757 10764 10769 10774 10777 10779 10783 10785 10786 10788 10789 10789 10790 10791 10792 10792 10792 10793 10794 10794 10795 10796 10797 10798 10799 10799 10799 10798 10799 10802 10802 10802 10801 10800 10800 10801 10800 10799 10798 10797 10796 10794 10793 10791 10790 10789 10787 10784 10782 10780 10778 10777
10551 10555 10562 10572 10582 10587 10589 10594 10597 10596 10602 10615 10622 10625 10637 10649 10648 10648 10653 10659 10668 10674 10683 10696 10703 10718 10741 10747 10750 10755 10750 10744 10744 10747 10753 10758 10763 10768 10770 10771 10775 10777 10779 10780 10782 10783 10783 10784 10785 10785 10786 10787 10788 10789 10789 10790 10791 10792 10793 10793 10793 10792 10793 10795 10795 10795 10794 10794 10794 10794 10793 10792 10792 10791 10790 10788 10787 10786 10785 10783 10780 10777 10776 10774 10772 10770
10541 10549 10562 10566 10567 10576 10583 10583 10578 10575 10586 10601 10606 10614 10633 10644 10639 10636 10642 10651 10655 10657 10672 10688 10700 10719 10732 10735 10743 10747 10747 10747 10741 10741 10748 10750 10755 10760 10762 10763 10766 10769 10772 10773 10776 10776 10776 10778 10778 10778 10779 10781 10782 10783 10783 10784 10785 10786 10786 10787 10787 10786 10788 10789 10788 10788 10788 10787 10787 10786 10786 10786 10786 10785 10784 10782 10781 10780 10779 10777 10774 10772 10770 10768 10765 10763
10531 10540 10556 10559 10562 10575 10579 10572 10566 10566 10571 10579 10592 10611 10624 10622 10621 10624 10628 10634 10639 10647 10665 10681 10697 10715 10722 10730 10741 10740 10742 10747 10741 10736 10736 10739 10746 10749 10752 10756 10758 10762 10765 10767 10768 10768 10769 10771 10771 10772 10772 10773 10776 10777 10778 10778 10779 10780 10780 10780 10780 10781 10782 10782 10782 10781 10780 10780 10780 10779 10779 10779 10779 10778 10776 10775 10774 10774 10773 10770 10768 10766 10764 10762 10759 10757
10520 10526 10541 10551 10558 10566 10563 10554 10554 10559 10561 10567 10584 10601 10604 10602 10608 10613 10613 10620 10631 10641 10656 10673 10686 10699 10712 10727 10734 10731 10734 10737 10734 10732 10729 10729 10735 10738 10742 10747 10751 10756 10759 10760 10761 10760 10761 10763 10764 10766 10766 10766 10768 10769 10771 10772 10773 10774 10773 10774 10774 10774 10774 10775 10775 10775 10773 10774 10773 10773 10773 10772 10772 10771 10769 10768 10767 10766 10765 10762 10761 10760 10758 10755 10753 10750
10516 10517 10529 10544 10550 10550 10545 10542 10547 10556 10561 10565 10572 10578 10583 10591 10598 10600 10601 10609 10620 10629 10642 10659 10670 10685 10710 10727 10724 10721 10726 10724 10723 10728 10728 10725 10726 10728 10732 10736 10741 10749 10751 10751 10753 10753 10754 10756 10757 10759 10759 10760 10761 10762 10764 10765 10766 10767 10767 10768 10768 10767 10768 10768 10768 10768 10767 10768 10767 10767 10766 10765 10764 10764 10762 10761 10760 10758 10757 10755 10754 10753 10750 10749 10746 10743
10504 10505 10517 10533 10538 10533 10530 10535 10548 10559 10561 10561 10564 10567 10572 10580 10586 10592 10595 10599 10609 10620 10633 10648 10663 10688 10714 10720 10713 10714 10716 10716 10718 10722 10724 10723 10720 10718 10721 10725 10730 10736 10740 10743 10745 10745 10747 10748 10749 10751 10751 10753 10754 10754 10756 10758 10759 10760 10760 10761 10762 10761 10762 10761 10761 10761 10761 10761 10761 10760 10759 10758 10757 10757 10755 10754 10752 10751 10749 10747 10746 10744 10742 10740 10737 10735
10489 10496 10508 10520 10524 10522 10527 10541 10551 10552 10550 10553 10558 10561 10564 10566 10568 10578 10586 10591 10601 10613 10627 10639 10656 10688 10706 10701 10702 10707 10705 10706 10709 10710 10712 10714 10713 10711 10711 10714 10718 10722 10727 10732 10735 10737 10739 10740 10741 10743 10744 10745 10746 10747 10748 10750 10751 10752 10753 10754 10755 10755 10755 10755 10755 10755 10754 10754 10754 10753 10752 10751 10750 10749 10748 10746 10745 10743 10741 10739 10738 10736 10734 10731 10728 10726
10481 10488 10496 10503 10511 10517 10526 10537 10539 10536 10539 10544 10546 10549 10554 10550 10547 10553 10567 10582 10589 10595 10611 10622 10636 10670 10688 10684 10689 10694 10689 10692 10695 10697 10700 10702 10704 10706 10705 10706 10709 10711 10715 10721 10726 10729 10731 10733 10735 10735 10737 10738 10739 10739 10740 10741 10743 10744 10746 10747 10747 10747 10747 10748 10748 10748 10748 10747 10746 10745 10745 10744 10742 10741 10740 10738 10736 10735 10733 10732 10730 10728 10726 10723 10720 10718
10462 10466 10475 10487 10500 10509 10515 10521 10525 10527 10529 10532 10535 10541 10545 10544 10545 10547 10553 10568 10577 10584 10600 10605 10617 10658 10681 10676 10680 10683 10680 10685 10689 10692 10697 10698 10699 10702 10701 10702 10703 10702 10705 10710 10715 10719 10721 10724 10726 10726 10729 10730 10731 10732 10732 10733 10735 10736 10738 10739 10739 10740 10740 10740 10741 10740 10740 10739 10738 10738 10737 10736 10735 10734 10733 10730 10729 10728 10725 10724 10722 10719 10717 10715 10712 10710
10450 10454 10466 10477 10484 10492 10497 10500 10508 10516 10518 10522 10532 10538 10538 10540 10544 10541 10540 10547 10558 10578 10597 10594 10608 10656 10679 10670 10674 10680 10680 10685 10688 10690 10695 10695 10694 10693 10693 10695 10694 10694 10696 10698 10703 10708 10710 10713 10714 10715 10718 10719 10722 10724 10725 10727 10728 10728 10730 10730 10731 10732 10732 10732 10732 10732 10732 10731 10730 10730 10729 10728 10728 10726 10725 10723 10721 10720 10717 10716 10714 10711 10709 10707 10704 10702
10439 10443 10454 10462 10468 10479 10489 10495 10505 10517 10520 10521 10526 10528 10530 10533 10535 10536 10539 10537 10542 10566 10586 10586 10605 10648 10664 10659 10666 10673 10675 10680 10681 10682 10686 10688 10685 10681 10679 10680 10681 10683 10686 10687 10691 10695 10698 10701 10703 10704 10706 10708 10712 10715 10717 10719 10720 10721 10722 10722 10723 10723 10723 10723 10724 10723 10723 10723 10722 10722 10721 10720 10719 10718 10716 10715 10713 10712 10710 10708 10705 10703 10701 10699 10697 10695
10427 10431 10440 10449 10458 10474 10491 10500 10508 10514 10513 10511 10516 10521 10525 10530 10532 10532 10530 10527 10536 10551 10562 10576 10602 10627 10637 10645 10656 10662 10664 10668 10669 10670 10674 10676 10672 10666 10663 10665 10668 10672 10675 10678 10682 10685 10688 10690 10692 10695 10697 10700 10703 10705 10707 10709 10711 10712 10713 10713 10714 10714 10715 10715 10715 10715 10715 10715 10714 10713 10713 10712 10710 10709 10708 10706 10705 10703 10701 10699 10697 10695 10693 10691 10689 10686
10418 10424 10434 10444 10454 10470 10485 10490 10492 10495 10495 10499 10509 10515 10519 10522 10523 10519 10515 10524 10538 10537 10538 10563 10589 10603 10620 10636 10642 10647 10652 10654 10656 10657 10659 10662 10660 10653 10650 10655 10660 10663 10666 10671 10675 10677 10678 10679 10682 10686 10690 10692 10694 10695 10697 10699 10701 10702 10703 10704 10705 10705 10706 10706 10706 10706 10706 10706 10706 10705 10704 10703 10701 10700 10699 10697 10696 10694 10692 10690 10687 10685 10683 10681 10679 10676
10409 10418 10431 10439 10447 10463 10475 10477 10480 10484 10486 10490 10499 10505 10509 10512 10511 10510 10514 10526 10531 10525 10531 10553 10563 10576 10606 10620 10619 10630 10640 10638 10639 10642 10642 10646 10649 10646 10643 10645 10650 10653 10656 10662 10666 10667 10667 10669 10673 10677 10680 10684 10686 10688 10689 10690 10692 10693 10694 10695 10696 10696 10697 10697 10696 10697 10697 10696 10696 10695 10694 10693 10691 10691 10690 10688 10687 10685 10682 10680 10678 10676 10674 10671 10669 10667
10400 10409 10421 10427 10434 10447 10456 10461 10468 10473 10474 10478 10486 10492 10497 10501 10502 10504 10510 10518 10521 10517 10526 10538 10536 10550 10586 10603 10604 10616 10621 10618 10622 10627 10631 10635 10639 10639 10636 10634 10637 10642 10646 10651 10654 10655 10656 10659 10664 10668 10673 10677 10678 10679 10681 10683 10684 10686 10686 10687 10688 10688 10688 10688 10688 10688 10688 10687 10687 10685 10684 10683 10682 10682 10681 10679 10678 10675 10673 10671 10669 10667 10664 10662 10660 10658
10391 10401 10413 10418 10421 10431 10442 10449 10455 10458 10461 10466 10474 10480 10485 10489 10492 10494 10498 10506 10510 10510 10518 10527 10524 10535 10568 10591 10599 10603 10603 10607 10618 10623 10625 10626 10627 10629 10629 10625 10627 10631 10635 10638 10641 10643 10646 10651 10656 10662 10666 10668 10668 10670 10672 10675 10677 10679 10679 10679 10679 10679 10679 10679 10680 10680 10680 10679 10678 10677 10676 10675 10675 10674 10673 10671 10669 10667 10664 10662 10660 10657 10655 10653 10651 10649
10381 10391 10401 10403 10404 10418 10437 10442 10444 10451 10453 10452 10457 10466 10474 10479 10482 10486 10492 10499 10503 10508 10515 10518 10518 10531 10553 10565 10573 10584 10590 10599 10613 10618 10617 10616 10615 10616 10617 10617 10619 10622 10623 10625 10628 10632 10637 10642 10648 10654 10657 10658 10660 10662 10664 10667 10669 10669 10669 10669 10670 10671 10671 10671 10672 10672 10672 10671 10670 10669 10668 10668 10667 10666 10664 10662 10660 10658 10656 10653 10650 10648 10646 10644 10642 10639
10373 10379 10388 10388 10391 10411 10431 10433 10436 10440 10432 10428 10443 10461 10470 10475 10479 10482 10487 10493 10497 10501 10504 10505 10515 10532 10538 10532 10542 10566 10581 10589 10598 10604 10603 10600 10597 10598 10604 10611 10615 10613 10612 10614 10617 10622 10627 10632 10637 10643 10647 10649 10652 10654 10656 10659 10660 10659 10660 10660 10661 10662 10661 10662 10663 10663 10662 10662 10661 10660 10660 10659 10658 10657 10655 10653 10650 10648 10646 10643 10640 10638 10636 10635 10632 10629
10363 10369 10378 10380 10384 10403 10419 10422 10420 10410 10399 10415 10449 10465 10465 10468 10472 10473 10478 10485 10490 10493 10494 10500 10512 10520 10518 10519 10533 10552 10566 10574 10580 10582 10581 10580 10582 10588 10598 10606 10608 10605 10603 10604 10609 10612 10615 10619 10623 10629 10635 10639 10642 10643 10647 10650 10651 10649 10649 10650 10651 10652 10652 10653 10654 10653 10652 10652 10652 10652 10652 10651 10649 10648 10646 10643 10641 10639 10636 10632 10630 10629 10627 10625 10622 10619
10355 10360 10367 10371 10376 10389 10401 10402 10391 10378 10387 10424 10452 10455 10452 10456 10459 10462 10466 10473 10478 10480 10482 10489 10498 10506 10512 10521 10528 10532 10538 10551 10560 10563 10565 10570 10578 10586 10592 10595 10598 10599 10596 10595 10598 10601 10601 10603 10609 10616 10623 10628 10630 10633 10637 10641 10642 10641 10640 10641 10642 10642 10643 10643 10643 10643 10643 10643 10643 10643 10643 10641 10640 10638 10636 10634 10631 10629 10625 10623 10621 10620 10617 10614 10612 10609
10348 10352 10356 10361 10365 10370 10376 10377 10369 10371 10396 10425 10435 10436 10440 10443 10447 10451 10454 10461 10470 10475 10479 10484 10492 10502 10506 10508 10510 10510 10516 10528 10538 10547 10557 10566 10573 10579 10583 10586 10588 10590 10590 10588 10587 10587 10587 10589 10597 10605 10611 10615 10619 10624 10629 10631 10632 10632 10632 10632 10632 10633 10633 10633 10634 10633 10633 10633 10634 10634 10633 10631 10630 10628 10626 10624 10622 10619 10616 10614 10612 10610 10607 10604 10602 10599
10338 10343 10346 10349 10352 10356 10361 10364 10367 10375 10393 10408 10418 10427 10433 10435 10441 10443 10442 10450 10464 10470 10471 10474 10480 10488 10492 10495 10498 10497 10500 10507 10517 10535 10554 10565 10569 10573 10574 10575 10575 10577 10580 10578 10573 10573 10575 10578 10586 10593 10599 10604 10609 10615 10618 10620 10622 10623 10623 10623 10624 10623 10623 10624 10624 10623 10623 10624 10624 10623 10623 10622 10620 10618 10616 10614 10612 10609 10606 10604 10603 10600 10597 10594 10592 10588
10325 10329 10333 10335 10340 10346 10349 10355 10362 10367 10379 10399 10414 10424 10427 10427 10431 10430 10425 10435 10453 10459 10458 10463 10472 10480 10486 10490 10489 10486 10485 10486 10500 10531 10555 10560 10559 10559 10555 10555 10557 10559 10563 10563 10561 10562 10564 10567 10573 10581 10588 10595 10601 10606 10609 10611 10613 10615 10614 10614 10613 10613 10614 10614 10613 10613 10614 10615 10615 10614 10613 10611 10609 10607 10606 10605 10602 10599 10597 10595 10592 10590 10587 10584 10581 10577
10311 10315 10318 10319 10325 10332 10335 10341 10350 10357 10375 10399 10410 10413 10413 10412 10414 10414 10410 10422 10445 10453 10451 10456 10466 10475 10482 10481 10475 10473 10471 10472 10494 10532 10547 10539 10534 10533 10529 10532 10539 10543 10545 10547 10550 10554 10556 10557 10563 10571 10581 10589 10594 10597 10599 10601 10604 10605 10605 10604 10602 10602 10603 10603 10601 10603 10605 10606 10606 10604 10602 10600 10598 10598 10597 10595 10592 10589 10587 10584 10582 10580 10577 10573 10570 10566
10298 10302 10306 10308 10314 10323 10326 10331 10340 10351 10370 10389 10395 10397 10398 10397 10399 10396 10395 10416 10442 10444 10438 10444 10455 10465 10470 10464 10456 10458 10464 10473 10496 10518 10517 10507 10505 10506 10508 10518 10528 10532 10533 10535 10541 10548 10551 10553 10558 10566 10574 10581 10583 10585 10588 10591 10593 10595 10595 10592 10591 10592 10592 10590 10591 10594 10596 10596 10595 10593 10591 10589 10588 10588 10587 10584 10582 10579 10576 10573 10572 10569 10566 10562 10558 10555
10286 10291 10296 10301 10308 10315 10317 10322 10332 10345 10363 10378 10382 10384 10384 10382 10381 10383 10393 10417 10433 10429 10427 10435 10443 10451 10451 10443 10442 10452 10463 10475 10486 10487 10483 10483 10486 10490 10499 10510 10517 10520 10524 10528 10536 10543 10545 10547 10554 10560 10564 10568 10570 10573 10577 10580 10583 10584 10583 10582 10581 10581 10579 10578 10581 10584 10584 10584 10584 10582 10580 10579 10578 10578 10576 10574 10572 10569 10565 10563 10561 10559 10555 10550 10546 10543
10278 10282 10286 10292 10298 10303 10306 10312 10321 10335 10353 10365 10368 10370 10371 10369 10371 10381 10395 10407 10412 10415 10422 10425 10429 10435 10434 10430 10438 10451 10458 10462 10465 10465 10470 10475 10476 10482 10494 10504 10509 10513 10517 10522 10527 10531 10534 10538 10545 10550 10553 10556 10558 10561 10565 10569 10572 10573 10572 10573 10571 10568 10566 10567 10570 10572 10573 10573 10572 10570 10568 10567 10567 10567 10565 10564 10562 10559 10555 10552 10551 10549 10545 10540 10535 10532
10267 10272 10278 10284 10290 10293 10296 10300 10308 10325 10344 10352 10352 10354 10359 10361 10365 10374 10384 10390 10397 10409 10414 10413 10418 10424 10423 10426 10436 10443 10447 10450 10452 10457 10466 10470 10470 10476 10486 10493 10500 10505 10507 10510 10515 10519 10522 10528 10535 10540 10543 10545 10547 10551 10554 10558 10561 10561 10561 10561 10557 10553 10554 10557 10559 10560 10562 10561 10559 10558 10556 10556 10556 10556 10555 10553 10551 10548 10545 10542 10540 10537 10535 10531 10527 10523
10257 10265 10273 10278 10281 10283 10287 10292 10302 10319 10335 10339 10338 10341 10349 10354 10357 10363 10372 10381 10391 10399 10402 10405 10410 10412 10413 10422 10430 10432 10437 10441 10443 10450 10458 10460 10463 10470 10473 10477 10485 10490 10492 10496 10502 10506 10510 10516 10524 10529 10531 10533 10537 10540 10543 10546 10548 10549 10548 10546 10542 10540 10543 10546 10548 10550 10550 10549 10547 10546 10545 10544 10545 10545 10544 10543 10540 10537 10534 10532 10529 10527 10524 10523 10520 10516
10248 10254 10259 10264 10268 10272 10280 10289 10299 10311 10324 10329 10330 10333 10340 10347 10351 10356 10366 10375 10381 10386 10392 10398 10400 10400 10405 10413 10418 10421 10427 10431 10433 10439 10444 10447 10453 10457 10459 10463 10470 10476 10478 10481 10486 10493 10498 10503 10510 10515 10519 10522 10525 10527 10531 10533 10535 10535 10533 10530 10528 10529 10532 10535 10537 10539 10538 10536 10536 10535 10533 10534 10534 10533 10533 10531 10529 10526 10524 10521 10519 10516 10514 10513 10511 10508
10233 10238 10243 10249 10255 10262 10274 10285 10294 10303 10314 10321 10323 10324 10330 10338 10343 10348 10356 10364 10369 10373 10379 10386 10390 10392 10395 10400 10407 10412 10415 10418 10423 10428 10430 10435 10440 10443 10447 10452 10457 10462 10466 10468 10473 10480 10486 10491 10497 10503 10507 10511 10513 10515 10518 10520 10521 10521 10518 10516 10517 10520 10522 10525 10527 10527 10525 10524 10525 10524 10523 10523 10522 10521 10521 10519 10517 10515 10512 10510 10508 10506 10504 10503 10501 10498
10219 10224 10230 10238 10245 10254 10267 10278 10285 10292 10301 10307 10312 10317 10323 10329 10334 10336 10342 10351 10357 10361 10367 10373 10379 10382 10385 10390 10397 10401 10403 10407 10414 10417 10419 10424 10429 10432 10437 10443 10447 10451 10454 10457 10462 10468 10473 10479 10486 10490 10494 10497 10499 10501 10503 10505 10507 10507 10505 10506 10508 10509 10511 10514 10515 10514 10514 10513 10513 10513 10512 10511 10510 10509 10508 10506 10504 10503 10501 10499 10498 10495 10493 10492 10490 10488
10207 10212 10221 10230 10237 10246 10258 10268 10273 10279 10286 10294 10301 10309 10314 10317 10320 10322 10327 10335 10343 10349 10356 10360 10364 10370 10376 10381 10385 10389 10394 10399 10404 10407 10410 10415 10420 10424 10428 10433 10439 10443 10444 10446 10451 10455 10460 10467 10472 10476 10480 10482 10484 10486 10488 10491 10494 10494 10494 10496 10496 10497 10500 10502 10503 10503 10503 10502 10502 10502 10500 10499 10498 10497 10495 10494 10493 10492 10490 10489 10488 10485 10483 10481 10479 10477
10198 10206 10215 10221 10226 10235 10248 10258 10260 10262 10270 10279 10287 10294 10299 10300 10303 10307 10312 10321 10330 10339 10345 10348 10350 10357 10366 10372 10375 10379 10385 10391 10395 10398 10402 10407 10412 10416 10418 10422 10429 10434 10435 10437 10440 10444 10449 10454 10458 10462 10466 10467 10470 10473 10476 10479 10481 10482 10482 10484 10484 10486 10489 10490 10490 10490 10491 10490 10491 10490 10488 10487 10486 10485 10484 10483 10483 10481 10480 10479 10478 10476 10474 10471 10468 10466
10193 10201 10205 10207 10214 10226 10240 10248 10246 10246 10257 10267 10272 10278 10284 10286 10289 10295 10301 10310 10320 10329 10333 10337 10341 10346 10354 10363 10366 10369 10376 10384 10386 10388 10393 10400 10405 10407 10409 10413 10419 10425 10429 10430 10431 10434 10439 10442 10445 10449 10452 10455 10458 10461 10463 10466 10468 10469 10471 10473 10474 10475 10476 10477 10478 10478 10478 10477 10477 10476 10475 10475 10474 10473 10473 10472 10472 10471 10470 10469 10467 10466 10464 10461 10458 10455
10185 10190 10192 10195 10205 10219 10231 10237 10234 10234 10244 10253 10255 10261 10270 10274 10277 10285 10292 10299 10309 10317 10322 10326 10331 10335 10341 10349 10355 10359 10367 10374 10375 10377 10385 10391 10393 10396 10400 10404 10410 10416 10420 10422 10423 10426 10428 10431 10435 10438 10440 10443 10447 10449 10450 10452 10455 10459 10462 10463 10463 10464 10463 10464 10465 10465 10464 10464 10464 10463 10463 10463 10462 10462 10462 10462 10461 10461 10459 10458 10456 10454 10452 10449 10446 10443